weerbeeld Almere Meer informatie weerbeeld Almere


Onweer radar Meer informatie blitzortung!


Regen radar Meer informatie rain snow radar


Apparatuur in gebruik:

Davis VP2

Meteohub

ALIX 1D

Web-Oke


Het weer levert geen direct gevaar op.    Er zijn geen waarschuwingen afgegeven.

15 daagse weersverwachting Almere Buiten (NL)

  • Overzicht
  • Per uur
  • 15 dagen
  • Extra
  • Vergelijk
  • Kaarten
  • Dagkaart
  • Meer »
  • Info
  • Statistieken
  • Directe link
    Temp 6h Neerslag Wind  
 05:18     22:04    Daglengte: 16:46 Morgen
02:00
16°
3.5 mm
4
08:00
16°
3.1 mm
3
14:00
18°
16.6 mm
5
20:00
17°
9.9 mm
5
 05:18     22:05    Daglengte: 16:47 Vrijdag 21 Jun
02:00
14°
 
3
08:00
15°
 
4
14:00
18°
 
4
20:00
17°
 
4
 05:18     22:05    Daglengte: 16:47 Zaterdag 22 Jun
02:00
12°
 
2
08:00
13°
 
3
14:00
19°
 
4
20:00
20°
 
4
Locatie info
Region: Flevoland
Latitude: 52.3914°N
Longitude: 5.2839°E
-2 masl
Temp/Neerslag /Baro Onweer/Dauwpunt
    Temp Baro 1h Neerslag Dauwpunt Wind UV Bewolking  
 05:18     22:04    Daglengte: 16:46 Vandaag
22:00
18°
1006.8 hPa 3.5 mm
49%
16.4°
3
Windvlaag: 0.5 m/s
75% warningclass
23:00
18°
1007.1 hPa
29%
15.8°
4
Windvlaag: 1 m/s
66%
 05:18     22:04    Daglengte: 16:46 Morgen
00:00
17°
1007.2 hPa
16%
15.5°
4
Windvlaag: 1.6 m/s
71%
01:00
16°
1007.2 hPa
21%
15.3°
4
Windvlaag: 1.7 m/s
86%
02:00
16°
1007.6 hPa
67%
15.1°
4
Windvlaag: 2.1 m/s
83%
03:00
16°
1007.9 hPa
30%
14.8°
4
Windvlaag: 2.1 m/s
78%
04:00
16°
1008.3 hPa
31%
14.6°
3
Windvlaag: 2.1 m/s
81%
05:00
15°
1008.5 hPa
74%
14.4°
3
Windvlaag: 2.4 m/s
71%
06:00
15°
1008.7 hPa
43%
14.2°
3
Windvlaag: 2.7 m/s
74%
07:00
15°
1009.0 hPa
31%
14.1°
3
Windvlaag: 2.8 m/s
64%
08:00
16°
1009.5 hPa 3.1 mm
33%
14.2°
3
Windvlaag: 2.7 m/s
61%
09:00
16°
1009.8 hPa 3.5 mm
76%
14.1°
3
Windvlaag: 2.6 m/s
78%
10:00
16°
1010.0 hPa 3.3 mm
69%
13.7°
2
Windvlaag: 1.9 m/s
85%
11:00
17°
1010.4 hPa
77%
14.2°
2
Windvlaag: 0.7 m/s
70%
12:00
18°
1010.6 hPa 3.2 mm
37%
14.3°
3
Windvlaag: 1.4 m/s
76%
13:00
18°
1010.9 hPa 3.9 mm
78%
14.3°
4
Windvlaag: 2 m/s
59%
14:00
18°
1011.1 hPa 2.8 mm
81%
15.2°
5
Windvlaag: 2.1 m/s
65%
15:00
18°
1011.3 hPa 3.5 mm
82%
14.7°
5
Windvlaag: 2 m/s
46% warningclass
16:00
18°
1011.5 hPa 3.2 mm
82%
14.7°
5
Windvlaag: 0.8 m/s
37%
17:00
18°
1011.8 hPa 3.2 mm
82%
13.0°
5
Windvlaag: 0.7 m/s
33%
18:00
18°
1012.1 hPa
75%
12.2°
6
Windvlaag: 0.7 m/s
21%
19:00
18°
1012.6 hPa
27%
11.9°
5
Windvlaag: 0.6 m/s
6%
20:00
17°
1013.1 hPa
30%
11.6°
5
Windvlaag: 0.9 m/s
6%
21:00
16°
1013.6 hPa
30%
11.5°
4
Windvlaag: 1.1 m/s
4%
22:00
15°
1014.2 hPa
21%
11.7°
3
Windvlaag: 1 m/s
4%
23:00
15°
1014.6 hPa
15%
11.7°
3
Windvlaag: 1 m/s
4%
 05:18     22:05    Daglengte: 16:47 Vrijdag 21 Jun
00:00
14°
1014.9 hPa
14%
11.8°
3
Windvlaag: 1.3 m/s
4%
01:00
14°
1015.1 hPa
14%
11.9°
3
Windvlaag: 2.2 m/s
3%
02:00
14°
1015.1 hPa
14%
12.3°
3
Windvlaag: 2.7 m/s
6%
03:00
13°
1015.2 hPa
14%
12.5°
3
Windvlaag: 3.1 m/s
30%
04:00
13°
1015.4 hPa
16%
12.5°
3
Windvlaag: 2.7 m/s
13%
05:00
13°
1015.6 hPa
17%
12.3°
3
Windvlaag: 2.1 m/s
12%
06:00
13°
1016.0 hPa
19%
12.2°
3
Windvlaag: 1.1 m/s
7%
07:00
14°
1016.5 hPa
21%
12.5°
3
Windvlaag: 1.8 m/s
14%
08:00
15°
1016.9 hPa
22%
12.8°
4
Windvlaag: 1.6 m/s
15%
09:00
16°
1017.4 hPa
31%
12.6°
4
Windvlaag: 0.7 m/s
13%
10:00
16°
1017.8 hPa
73%
12.1°
4
Windvlaag: -0.3 m/s
33%
11:00
17°
1018.1 hPa
35%
12.5°
4
Windvlaag: -0.3 m/s
10%
12:00
18°
1018.3 hPa
31%
12.8°
3
Windvlaag: -0.1 m/s
42%
13:00
18°
1018.6 hPa
29%
13.0°
4
Windvlaag: -0.2 m/s
21%
14:00
18°
1018.6 hPa
21%
12.8°
4
Windvlaag: -0.4 m/s
19%
15:00
18°
1018.9 hPa
22%
11.6°
4
Windvlaag: -0.6 m/s
19%
16:00
18°
1019.3 hPa
22%
11.0°
5
Windvlaag: -0.6 m/s
11%
17:00
18°
1019.9 hPa
24%
10.8°
5
Windvlaag: -0.7 m/s
15%
18:00
18°
1020.2 hPa
21%
9.4°
5
Windvlaag: -0.9 m/s
13%
19:00
17°
1020.6 hPa
21%
8.2°
5
Windvlaag: -1.5 m/s
8%
20:00
17°
1021.1 hPa
21%
8.0°
4
Windvlaag: -1.8 m/s
3%
21:00
16°
1021.5 hPa
21%
8.6°
3
Windvlaag: -1.9 m/s
1%
22:00
14°
1022.1 hPa
21%
9.5°
3
Windvlaag: -1.5 m/s
1%
23:00
13°
1022.6 hPa
21%
9.8°
3
Windvlaag: -1.2 m/s
1%
 05:18     22:05    Daglengte: 16:47 Zaterdag 22 Jun
00:00
13°
1023.0 hPa
21%
9.8°
3
Windvlaag: -1.4 m/s
0%
01:00
13°
1023.2 hPa
21%
9.8°
2
Windvlaag: -1.3 m/s
0%
02:00
12°
1023.2 hPa
21%
9.8°
2
Windvlaag: -1.3 m/s
0%
03:00
12°
1023.2 hPa
21%
9.6°
2
Windvlaag: -1 m/s
0%
04:00
11°
1023.3 hPa
21%
9.6°
2
Windvlaag: -0.4 m/s
0%
05:00
11°
1023.3 hPa
21%
9.7°
2
Windvlaag: -0.2 m/s
1%
06:00
11°
1023.7 hPa
21%
9.7°
3
Windvlaag: 0.1 m/s
2%
07:00
12°
1023.9 hPa
21%
9.4°
2
Windvlaag: 0.4 m/s
6%
08:00
13°
1024.3 hPa
21%
9.5°
3
Windvlaag: -0.1 m/s
5%
09:00
14°
1024.2 hPa
23%
9.8°
3
Windvlaag: -1.2 m/s
15%
10:00
15°
1024.0 hPa
21%
9.8°
3
Windvlaag: -1.7 m/s
11%
11:00
17°
1024.0 hPa
21%
9.9°
3
Windvlaag: -2.4 m/s
8%
12:00
17°
1023.8 hPa
21%
9.8°
3
Windvlaag: -2.8 m/s
33%
13:00
18°
1023.7 hPa
21%
9.5°
3
Windvlaag: -2.6 m/s
39%
14:00
19°
1023.5 hPa
21%
9.2°
4
Windvlaag: -1.3 m/s
46%
15:00
20°
1023.1 hPa
21%
10.0°
4
Windvlaag: 4.3 m/s
42%
16:00
20°
1022.8 hPa
21%
10.4°
4
Windvlaag: 4.5 m/s
23%
17:00
20°
1022.5 hPa
21%
10.7°
4
Windvlaag: 4.5 m/s
22%
18:00
20°
1022.1 hPa
21%
11.0°
4
Windvlaag: 5.6 m/s
42%
19:00
20°
1021.9 hPa
21%
11.0°
4
Windvlaag: 5 m/s
15%
20:00
20°
1021.7 hPa
21%
11.1°
4
Windvlaag: 0.9 m/s
6%
21:00
18°
1022.5 hPa   11.0°
5
Windvlaag: 0 m/s
2%
Temp/Neerslag /Baro Onweer/Dauwpunt
    Temp Baro Neerslag Dauwpunt Wind Bewolking  
 05:18     22:04    Daglengte: 16:46 Vandaag
23:00
18°
1007.1 hPa 3.5 mm 15.8°
4
66%
 05:18     22:04    Daglengte: 16:46 Morgen
02:00
16°
1007.6 hPa   15.1°
4
83%
05:00
15°
1008.5 hPa   14.4°
3
71%
08:00
16°
1009.5 hPa 3.1 mm 14.2°
3
61%
11:00
17°
1010.4 hPa 6.8 mm 14.2°
2
70%
14:00
18°
1011.1 hPa 9.8 mm 15.2°
5
65%
17:00
18°
1011.8 hPa 9.9 mm 13.0°
5
33%
20:00
17°
1013.1 hPa   11.6°
5
6%
23:00
15°
1014.6 hPa   11.7°
3
4%
 05:18     22:05    Daglengte: 16:47 Vrijdag 21 Jun
02:00
14°
1015.1 hPa   12.3°
3
6%
05:00
13°
1015.6 hPa   12.3°
3
12%
08:00
15°
1016.9 hPa   12.8°
4
15%
11:00
17°
1018.1 hPa   12.5°
4
10%
14:00
18°
1018.6 hPa   12.8°
4
19%
17:00
18°
1019.9 hPa   10.8°
5
15%
20:00
17°
1021.1 hPa   8.0°
4
3%
23:00
13°
1022.6 hPa   9.8°
3
1%
 05:18     22:05    Daglengte: 16:47 Zaterdag 22 Jun
02:00
12°
1023.2 hPa   9.8°
2
0%
05:00
11°
1023.3 hPa   9.7°
2
1%
08:00
13°
1024.3 hPa   9.5°
3
5%
11:00
17°
1024.0 hPa   9.9°
3
8%
14:00
19°
1023.5 hPa   9.2°
4
46%
17:00
20°
1022.5 hPa   10.7°
4
22%
20:00
20°
1021.7 hPa   11.1°
4
6%
23:00
16°
1022.9 hPa 8.6 mm 10.9°
5
3%
 05:19     22:05    Daglengte: 16:46 Zondag 23 Jun
02:00
14°
1023.3 hPa 8.6 mm 10.4°
5
4%
05:00
15°
1023.1 hPa 8.6 mm 10.9°
4
2%
08:00
15°
1023.0 hPa 8.6 mm 11.4°
4
0%
11:00
19°
1022.7 hPa 8.6 mm 13.1°
4
0%
14:00
23°
1022.4 hPa 8.6 mm 14.0°
4
0%
17:00
23°
1021.7 hPa 8.6 mm 15.4°
4
3%
20:00
23°
1021.0 hPa 8.6 mm 16.6°
4
5%
23:00
21°
1021.9 hPa 8.6 mm 13.9°
5
3%
 05:19     22:05    Daglengte: 16:46 Maandag 24 Jun
02:00
19°
1022.7 hPa 8.6 mm 11.3°
6
0%
05:00
18°
1022.5 hPa 8.6 mm 11.7°
5
1%
08:00
18°
1022.4 hPa 8.6 mm 12.1°
5
2%
11:00
21°
1022.2 hPa 8.6 mm 14.0°
5
44%
14:00
25°
1022.0 hPa 8.6 mm 15.6°
4
85%
17:00
25°
1021.2 hPa 8.6 mm 16.4°
4
85%
20:00
25°
1020.4 hPa 8.6 mm 17.2°
4
85%
23:00
23°
1021.2 hPa 8.6 mm 15.0°
5
81%
 05:19     22:05    Daglengte: 16:46 Dinsdag 25 Jun
02:00
21°
1022.0 hPa 8.6 mm 12.8°
5
76%
05:00
21°
1021.7 hPa 8.6 mm 13.2°
5
39%
08:00
20°
1021.6 hPa 8.6 mm 13.5°
4
2%
11:00
24°
1021.3 hPa 8.6 mm 15.3°
4
26%
14:00
27°
1020.9 hPa 8.6 mm 16.6°
5
50%
17:00
27°
1020.3 hPa 8.6 mm 17.4°
4
66%
20:00
27°
1019.7 hPa 8.6 mm 18.2°
3
82%
23:00
25°
1020.0 hPa 8.6 mm 16.6°
4
54%
 05:20     22:05    Daglengte: 16:45 Woensdag 26 Jun
02:00
22°
1020.3 hPa 8.6 mm 14.9°
4
26%
05:00
22°
1020.0 hPa 8.6 mm 15.3°
4
49%
08:00
22°
1019.7 hPa 8.6 mm 15.9°
4
72%
11:00
25°
1019.3 hPa 8.6 mm 17.0°
4
37%
14:00
29°
1018.8 hPa 8.6 mm 17.7°
5
2%
17:00
29°
1017.8 hPa 8.6 mm 18.2°
4
3%
20:00
30°
1016.8 hPa 17.2 mm 18.5°
3
5%
 05:20     22:05    Daglengte: 16:45 Donderdag 27 Jun
02:00
23°
1016.1 hPa 25.5 mm 16.6°
3
0%
08:00
23°
1015.0 hPa 29.3 mm 18.8°
2
0%
14:00
31°
1014.7 hPa 30.5 mm 22.3°
1
0%
20:00
27°
1012.9 hPa 31.4 mm 21.1°
3
0%
 05:21     22:05    Daglengte: 16:44 Vrijdag 28 Jun
02:00
24°
1012.6 hPa 31.5 mm 21.0°
3
0%
08:00
22°
1013.8 hPa 31.9 mm 18.7°
5
0%
14:00
25°
1015.5 hPa 32.1 mm 19.3°
5
39%
20:00
22°
1014.5 hPa 32.1 mm 17.7°
3
53%
 05:21     22:04    Daglengte: 16:43 Zaterdag 29 Jun
02:00
18°
1014.2 hPa 32.1 mm 16.8°
3
67%
08:00
16°
1018.5 hPa 32.1 mm 13.6°
2
0%
14:00
20°
1018.7 hPa 32.1 mm 16.9°
3
0%
20:00
22°
1015.5 hPa 0.6 mm 15.0°
4
30%
 05:22     22:04    Daglengte: 16:42 Zondag 30 Jun
02:00
16°
1015.4 hPa 0.5 mm 12.2°
3
36%
08:00
17°
1014.7 hPa 0.4 mm 12.7°
2
34%
14:00
23°
1014.6 hPa 0.5 mm 15.3°
0
36%
20:00
21°
1013.9 hPa 0.4 mm 15.8°
2
32%
 05:23     22:04    Daglengte: 16:41 Maandag 01 Jul
02:00
16°
1014.1 hPa 0.4 mm 13.4°
0
22%
08:00
17°
1013.3 hPa 0.5 mm 13.6°
1
29%
14:00
21°
1013.1 hPa 1.2 mm 15.2°
3
38%
20:00
20°
1012.3 hPa 0.6 mm 15.0°
3
35%
 05:24     22:04    Daglengte: 16:40 Dinsdag 02 Jul
02:00
16°
1012.4 hPa 0.8 mm 13.3°
1
33%
08:00
17°
1012.0 hPa 0.4 mm 13.8°
2
39%
14:00
20°
1012.3 hPa 0.7 mm 14.7°
4
46%
20:00
19°
1012.2 hPa 1.1 mm 14.1°
4
40%
 05:24     22:03    Daglengte: 16:39 Woensdag 03 Jul
02:00
15°
1012.8 hPa 0.4 mm 12.2°
2
42%
08:00
16°
1012.7 hPa 0.3 mm 12.5°
2
45%
14:00
19°
1013.1 hPa 0.4 mm 13.6°
3
53%
20:00
18°
1012.8 hPa 0.5 mm 13.6°
3
40%
 05:25     22:03    Daglengte: 16:38 Donderdag 04 Jul
02:00
14°
1012.8 hPa 0.3 mm 12.2°
1
26%
08:00
16°
1012.2 hPa 0.8 mm 12.9°
0
38%
14:00
19°
1012.2 hPa 2.4 mm 14.2°
2
52%
20:00
18°
1012.0 hPa 2.5 mm 13.6°
3
49%
  CAPE Lifted Index Hail Supercell Tornado SRH 3km CL BTM PRES CL TOP PRES Swiss DWD icon SMHI TS
 05:18     22:04    Daglengte: 16:46 Vandaag
22:00 891 J/kg -3.3 K 0 % 0 % 0 % 0 m²/s² 0 0 -2.37 80
23:00 825 J/kg -3.0 K 0 % 0 % 0 % 0 m²/s² 0 0 -2.01 3
 05:18     22:04    Daglengte: 16:46 Morgen
00:00 768 J/kg -2.8 K 0 % 0 % 0 % 0 m²/s² 0 0 -1.75 3
01:00 16 J/kg -0.3 K 0 % 0 % 0 % 0 m²/s² 0 0 1.17 3
02:00 218 J/kg -1.9 K 0 % 0 % 0 % 0 m²/s² 0 0 -1 3
03:00 433 J/kg -1.9 K 0 % 0 % 0 % 0 m²/s² 0 0 -1 3
04:00 60 J/kg -0.7 K 0 % 0 % 0 % 0 m²/s² 0 0 -0.19 3
05:00 2 J/kg -0.2 K 0 % 0 % 0 % 0 m²/s² 0 0 0.28 3
06:00 4 J/kg -0.2 K 0 % 0 % 0 % 0 m²/s² 0 0 0.31 3
07:00 6 J/kg 0.1 K 0 % 0 % 0 % 0 m²/s² 0 0 1.09 3
08:00 11 J/kg 0.6 K 0 % 0 % 0 % 0 m²/s² 0 0 1.53 3
09:00 48 J/kg 0.2 K 0 % 0 % 0 % 0 m²/s² 0 0 0.98 3
10:00 70 J/kg 0.2 K 0 % 0 % 0 % 0 m²/s² 0 0 0.95 3
11:00 68 J/kg 0.4 K 0 % 0 % 0 % 0 m²/s² 0 0 1.78 3
12:00 166 J/kg -0.1 K 0 % 0 % 0 % 0 m²/s² 0 0 1.73 3
13:00 284 J/kg -0.8 K 0 % 0 % 0 % 0 m²/s² 0 0 1.3 3
14:00 274 J/kg -0.4 K 0 % 0 % 0 % 0 m²/s² 0 0 2.09 80
15:00 284 J/kg -0.1 K 0 % 0 % 0 % 0 m²/s² 0 0 2.69 95
16:00 271 J/kg -0.1 K 0 % 0 % 0 % 0 m²/s² 0 0 3.29 80
17:00 253 J/kg 0.1 K 0 % 0 % 0 % 0 m²/s² 0 0 3.76 80
18:00 90 J/kg 1.5 K 0 % 0 % 0 % 0 m²/s² 0 0 5.88 3
19:00 0 J/kg 3.1 K 0 % 0 % 0 % 0 m²/s² 0 0 8.77 1
20:00 0 J/kg 4.0 K 0 % 0 % 0 % 0 m²/s² 0 0 10.18 1
21:00 0 J/kg 4.4 K 0 % 0 % 0 % 0 m²/s² 0 0 10.07 1
22:00 0 J/kg 5.2 K 0 % 0 % 0 % 0 m²/s² 0 0 9.25 0
23:00 0 J/kg 5.5 K 0 % 0 % 0 % 0 m²/s² 0 0 8.8 0
 05:18     22:05    Daglengte: 16:47 Vrijdag 21 Jun
00:00 0 J/kg 4.4 K 0 % 0 % 0 % 0 m²/s² 0 0 7.52 0
01:00 7 J/kg 3.8 K 0 % 0 % 0 % 0 m²/s² 0 0 7.1 0
02:00 0 J/kg 3.0 K 0 % 0 % 0 % 0 m²/s² 0 0 5.7 1
03:00 0 J/kg 2.7 K 0 % 0 % 0 % 0 m²/s² 0 0 5.55 3
04:00 0 J/kg 2.4 K 0 % 0 % 0 % 0 m²/s² 0 0 5.1 2
05:00 0 J/kg 2.0 K 0 % 0 % 0 % 0 m²/s² 0 0 4.34 1
06:00 0 J/kg 2.0 K 0 % 0 % 0 % 0 m²/s² 0 0 4.34 0
07:00 0 J/kg 2.8 K 0 % 0 % 0 % 0 m²/s² 0 0 5.74 0
08:00 28 J/kg 3.1 K 0 % 0 % 0 % 0 m²/s² 0 0 6.1 2
09:00 145 J/kg 2.4 K 0 % 0 % 0 % 0 m²/s² 0 0 5.85 1
10:00 191 J/kg 2.2 K 0 % 0 % 0 % 0 m²/s² 0 0 6.22 2
11:00 187 J/kg 2.6 K 0 % 0 % 0 % 0 m²/s² 0 0 7.31 2
12:00 118 J/kg 3.7 K 0 % 0 % 0 % 0 m²/s² 0 0 8.77 3
13:00 113 J/kg 4.1 K 0 % 0 % 0 % 0 m²/s² 0 0 10.25 2
14:00 69 J/kg 5.4 K 0 % 0 % 0 % 0 m²/s² 0 0 12.69 1
15:00 43 J/kg 6.3 K 0 % 0 % 0 % 0 m²/s² 0 0 13.35 2
16:00 26 J/kg 7.2 K 0 % 0 % 0 % 0 m²/s² 0 0 14.07 2
17:00 45 J/kg 6.9 K 0 % 0 % 0 % 0 m²/s² 0 0 13.56 0
18:00 16 J/kg 7.3 K 0 % 0 % 0 % 0 m²/s² 0 0 13.6 0
19:00 0 J/kg 8.9 K 0 % 0 % 0 % 0 m²/s² 0 0 15.02 0
20:00 0 J/kg 10.1 K 0 % 0 % 0 % 0 m²/s² 0 0 16.04 0
21:00 0 J/kg 10.3 K 0 % 0 % 0 % 0 m²/s² 0 0 16.27 0
22:00 0 J/kg 10.6 K 0 % 0 % 0 % 0 m²/s² 0 0 16.57 0
23:00 0 J/kg 10.9 K 0 % 0 % 0 % 0 m²/s² 0 0 16.87 0
 05:18     22:05    Daglengte: 16:47 Zaterdag 22 Jun
00:00 0 J/kg 10.7 K 0 % 0 % 0 % 0 m²/s² 0 0 16.85 0
01:00 0 J/kg 10.6 K 0 % 0 % 0 % 0 m²/s² 0 0 16.75 0
02:00 0 J/kg 10.8 K 0 % 0 % 0 % 0 m²/s² 0 0 16.77 0
03:00 0 J/kg 11.0 K 0 % 0 % 0 % 0 m²/s² 0 0 16.97 0
04:00 0 J/kg 10.9 K 0 % 0 % 0 % 0 m²/s² 0 0 17.05 0
05:00 0 J/kg 10.5 K 0 % 0 % 0 % 0 m²/s² 0 0 16.47 0
06:00 0 J/kg 10.4 K 0 % 0 % 0 % 0 m²/s² 0 0 16.52 0
07:00 0 J/kg 10.5 K 0 % 0 % 0 % 0 m²/s² 0 0 16.8 0
08:00 0 J/kg 10.2 K 0 % 0 % 0 % 0 m²/s² 0 0 16.71 0
09:00 0 J/kg 10.2 K 0 % 0 % 0 % 0 m²/s² 0 0 16.92 0
10:00 0 J/kg 10.0 K 0 % 0 % 0 % 0 m²/s² 0 0 17.17 0
11:00 0 J/kg 9.4 K 0 % 0 % 0 % 0 m²/s² 0 0 16.81 0
12:00 0 J/kg 9.2 K 0 % 0 % 0 % 0 m²/s² 0 0 16.88 0
13:00 0 J/kg 8.5 K 0 % 0 % 0 % 0 m²/s² 0 0 16.48 0
14:00 0 J/kg 7.9 K 0 % 0 % 0 % 0 m²/s² 0 0 16.21 0
15:00 0 J/kg 7.1 K 0 % 0 % 0 % 0 m²/s² 0 0 15.41 0
16:00 0 J/kg 6.7 K 0 % 0 % 0 % 0 m²/s² 0 0 15.01 1
17:00 1 J/kg 6.2 K 0 % 0 % 0 % 0 m²/s² 0 0 14.54 1
18:00 0 J/kg 5.5 K 0 % 0 % 0 % 0 m²/s² 0 0 13.87 3
19:00 0 J/kg 5.4 K 0 % 0 % 0 % 0 m²/s² 0 0 13.47 1
20:00 0 J/kg 5.2 K 0 % 0 % 0 % 0 m²/s² 0 0 12.97 0
21:00 0 J/kg 0.0 K 0 % 0 % 0 % 0 m²/s² 0 0 13.83
Temp Baro Wind Neerslag
  EWN Forecast EWN WRFDA DWD ICON FMI HIRLAM MET Norway GFS
 05:18     22:04    Daglengte: 16:46 Vandaag
23:00 17.8° 1007.1 hPa 3.5 m/s 3.5 mm 18.1° 1006.4 hPa 2.6 m/s 26.7 mm 17.4° 1007.2 hPa 2.2 m/s 5.0 mm 19.0° 1007.1 hPa 2.4 m/s 0.0 mm 17.7° 1006.9 hPa 4.5 m/s 0.4 mm 16.4° 1007.0 hPa 2.1 m/s
 05:18     22:04    Daglengte: 16:46 Morgen
02:00 16.0° 1007.6 hPa 3.7 m/s 0.0 mm 16.9° 1006.1 hPa 3.4 m/s 40.3 mm 16.6° 1007.6 hPa 2.9 m/s 0.0 mm 15.9° 1007.7 hPa 3.8 m/s 0.0 mm 16.0° 1007.4 hPa 3.8 m/s 0.6 mm 15.0° 1007.2 hPa 2.9 m/s
05:00 15.3° 1008.5 hPa 3.2 m/s 0.0 mm 14.9° 1006.8 hPa 3.1 m/s 40.9 mm 15.3° 1008.5 hPa 3.2 m/s 0.0 mm 15.3° 1008.3 hPa 3.3 m/s 0.0 mm 15.1° 1008.7 hPa 3.0 m/s 0.5 mm 13.9° 1007.9 hPa 3.8 m/s
08:00 15.7° 1009.5 hPa 3.0 m/s 3.1 mm 15.6° 1008.0 hPa 2.8 m/s 41.2 mm 15.4° 1009.6 hPa 3.0 m/s 0.0 mm 15.6° 1009.6 hPa 2.8 m/s 0.0 mm 15.7° 1009.6 hPa 2.3 m/s 0.6 mm 15.4° 1009.3 hPa 3.4 m/s
11:00 17.0° 1010.4 hPa 2.2 m/s 6.8 mm 17.2° 1009.2 hPa 3.3 m/s 41.7 mm 16.0° 1010.9 hPa 2.0 m/s 0.1 mm 17.1° 1010.5 hPa 1.5 m/s 0.0 mm 17.2° 1010.2 hPa 2.2 m/s 1.4 mm 16.4° 1010.8 hPa 2.5 m/s
14:00 18.0° 1011.1 hPa 4.6 m/s 9.8 mm 19.1° 1010.3 hPa 4.5 m/s 42.4 mm 17.4° 1011.6 hPa 2.9 m/s 0.3 mm 18.3° 1010.9 hPa 3.5 m/s 0.0 mm 17.9° 1011.1 hPa 5.0 m/s 4.4 mm 17.6° 1012.1 hPa 4.7 m/s
17:00 18.0° 1011.8 hPa 5.5 m/s 9.9 mm 19.7° 1010.9 hPa 5.7 m/s 43.2 mm 16.9° 1012.3 hPa 4.1 m/s 2.6 mm 18.0° 1011.1 hPa 4.0 m/s 0.0 mm 18.4° 1011.9 hPa 5.6 m/s 0.5 mm 18.5° 1012.6 hPa 6.0 m/s
20:00 17.1° 1013.1 hPa 4.6 m/s 0.0 mm 17.9° 1012.1 hPa 4.1 m/s 43.4 mm 17.1° 1013.7 hPa 3.8 m/s 0.1 mm 17.8° 1011.9 hPa 5.1 m/s 0.0 mm 16.8° 1013.3 hPa 4.6 m/s 0.0 mm 16.3° 1014.3 hPa 5.5 m/s
23:00 14.6° 1014.6 hPa 2.9 m/s 0.0 mm 12.7° 1013.3 hPa 2.4 m/s 43.4 mm 14.2° 1014.6 hPa 2.4 m/s 0.0 mm 15.7° 1013.9 hPa 5.6 m/s 0.0 mm 14.6° 1015.0 hPa 2.6 m/s 0.0 mm 13.5° 1015.4 hPa 2.0 m/s
 05:18     22:05    Daglengte: 16:47 Vrijdag 21 Jun
02:00 13.5° 1015.1 hPa 3.0 m/s 0.0 mm 11.5° 1014.0 hPa 2.9 m/s 43.4 mm 12.8° 1015.4 hPa 2.6 m/s 0.0 mm 13.8° 1014.6 hPa 2.4 m/s 0.0 mm 13.7° 1015.5 hPa 3.2 m/s 0.0 mm 12.9° 1016.0 hPa 4.0 m/s
05:00 13.1° 1015.6 hPa 3.3 m/s 0.0 mm 10.7° 1014.3 hPa 3.1 m/s 43.4 mm 12.8° 1016.1 hPa 2.6 m/s 0.0 mm 13.0° 1015.1 hPa 3.1 m/s 0.0 mm 13.2° 1015.8 hPa 3.2 m/s 0.0 mm 13.3° 1016.4 hPa 4.2 m/s
08:00 14.8° 1016.9 hPa 3.6 m/s 0.0 mm 14.4° 1015.0 hPa 3.2 m/s 43.4 mm 14.8° 1017.1 hPa 4.0 m/s 0.0 mm 14.2° 1016.1 hPa 2.5 m/s 0.0 mm 14.8° 1017.2 hPa 3.7 m/s 0.0 mm 14.6° 1017.5 hPa 3.5 m/s
11:00 17.1° 1018.1 hPa 3.7 m/s 0.0 mm 17.0° 1016.0 hPa 2.7 m/s 43.5 mm 17.3° 1018.4 hPa 4.4 m/s 0.1 mm 17.8° 1016.9 hPa 2.9 m/s 0.0 mm 16.5° 1018.4 hPa 3.8 m/s 0.4 mm 17.2° 1018.9 hPa 4.3 m/s
14:00 18.5° 1018.6 hPa 3.8 m/s 0.0 mm 18.7° 1016.5 hPa 3.5 m/s 46.1 mm 19.0° 1018.7 hPa 5.0 m/s 0.0 mm 18.7° 1017.1 hPa 2.7 m/s 0.0 mm 17.2° 1019.0 hPa 3.6 m/s 0.5 mm 18.1° 1019.6 hPa 4.7 m/s
17:00 18.1° 1019.9 hPa 4.9 m/s 0.0 mm 18.7° 1018.1 hPa 4.9 m/s 46.4 mm 18.7° 1020.1 hPa 5.0 m/s 0.0 mm 17.4° 1020.0 hPa 4.3 m/s 0.4 mm 17.8° 1020.7 hPa 3.8 m/s
20:00 16.6° 1021.1 hPa 3.8 m/s 0.0 mm 16.1° 1018.6 hPa 5.4 m/s 46.4 mm 16.7° 1021.0 hPa 3.5 m/s 0.0 mm 16.6° 1021.3 hPa 3.5 m/s 0.0 mm 15.4° 1021.4 hPa 4.5 m/s
23:00 13.4° 1022.6 hPa 2.7 m/s 0.0 mm 12.1° 1020.4 hPa 3.2 m/s 46.4 mm 13.6° 1022.5 hPa 1.7 m/s 0.0 mm 13.3° 1022.8 hPa 2.6 m/s 0.0 mm 12.6° 1023.0 hPa 3.3 m/s
 05:18     22:05    Daglengte: 16:47 Zaterdag 22 Jun
02:00 12.4° 1023.2 hPa 2.1 m/s 0.0 mm 9.6° 1021.1 hPa 2.9 m/s 46.4 mm 12.2° 1023.5 hPa 1.1 m/s 0.0 mm 12.6° 1023.4 hPa 2.0 m/s 0.0 mm 11.4° 1023.6 hPa 2.6 m/s
05:00 10.9° 1023.3 hPa 2.1 m/s 0.0 mm 8.0° 1020.6 hPa 2.9 m/s 46.4 mm 10.3° 1023.6 hPa 1.4 m/s 0.0 mm 11.1° 1023.5 hPa 2.0 m/s 0.0 mm 10.6° 1023.4 hPa 2.7 m/s
08:00 13.1° 1024.3 hPa 2.6 m/s 0.0 mm 13.1° 1021.8 hPa 3.4 m/s 46.4 mm 12.8° 1024.7 hPa 2.1 m/s 0.0 mm 13.5° 1024.4 hPa 2.6 m/s 0.0 mm 12.4° 1024.0 hPa 3.8 m/s
11:00 16.5° 1024.0 hPa 3.2 m/s 0.0 mm 17.5° 1021.3 hPa 4.0 m/s 46.4 mm 17.1° 1024.5 hPa 2.9 m/s 0.0 mm 16.1° 1024.1 hPa 3.0 m/s 15.8° 1024.1 hPa 3.9 m/s
14:00 19.0° 1023.5 hPa 3.6 m/s 0.0 mm 19.7° 1020.3 hPa 4.2 m/s 46.4 mm 20.1° 1024.3 hPa 3.0 m/s 0.0 mm 18.6° 1023.7 hPa 3.5 m/s 18.1° 1023.6 hPa 4.1 m/s
17:00 20.0° 1022.5 hPa 3.9 m/s 0.0 mm 21.3° 1019.4 hPa 4.5 m/s 46.4 mm 21.0° 1022.8 hPa 3.1 m/s 0.0 mm 19.0° 1022.9 hPa 4.0 m/s 18.3° 1022.3 hPa 5.3 m/s
20:00 19.7° 1021.7 hPa 4.4 m/s 0.0 mm 21.1° 1019.0 hPa 4.7 m/s 46.4 mm 19.8° 1022.3 hPa 4.1 m/s 0.0 mm 19.4° 1022.0 hPa 4.4 m/s 18.1° 1021.9 hPa 4.9 m/s
23:00 15.8° 1022.9 hPa 4.7 m/s 8.6 mm 15.9° 1022.9 hPa 4.6 m/s 14.8° 1022.9 hPa 6.1 m/s 8.6 mm
 05:19     22:05    Daglengte: 16:46 Zondag 23 Jun
02:00 14.0° 1023.3 hPa 4.8 m/s 8.6 mm 14.1° 1023.4 hPa 4.7 m/s 12.9° 1022.3 hPa 5.8 m/s 8.6 mm
05:00 14.6° 1023.1 hPa 4.3 m/s 8.6 mm 14.8° 1023.2 hPa 4.2 m/s 12.4° 1021.9 hPa 5.0 m/s 8.6 mm
08:00 15.3° 1023.0 hPa 3.9 m/s 8.6 mm 15.4° 1023.1 hPa 3.8 m/s 14.6° 1021.7 hPa 4.9 m/s 8.6 mm
11:00 19.3° 1022.7 hPa 4.0 m/s 8.6 mm 19.3° 1022.8 hPa 4.0 m/s 19.0° 1022.1 hPa 4.5 m/s 8.6 mm
14:00 23.1° 1022.4 hPa 4.3 m/s 8.6 mm 23.2° 1022.5 hPa 4.2 m/s 22.3° 1021.7 hPa 5.5 m/s 8.6 mm
17:00 23.3° 1021.7 hPa 3.9 m/s 8.6 mm 23.3° 1021.8 hPa 3.8 m/s 22.8° 1020.6 hPa 5.5 m/s 8.6 mm
20:00 23.2° 1021.0 hPa 3.5 m/s 8.6 mm 23.4° 1021.0 hPa 3.3 m/s 21.3° 1020.5 hPa 6.2 m/s 8.6 mm
23:00 20.8° 1021.9 hPa 4.6 m/s 8.6 mm 21.0° 1021.9 hPa 4.4 m/s 18.4° 1021.6 hPa 6.4 m/s 8.6 mm
 05:19     22:05    Daglengte: 16:46 Maandag 24 Jun
02:00 18.6° 1022.7 hPa 5.6 m/s 8.6 mm 18.7° 1022.8 hPa 5.6 m/s 17.4° 1021.6 hPa 5.4 m/s 8.6 mm
05:00 18.3° 1022.5 hPa 5.3 m/s 8.6 mm 18.4° 1022.6 hPa 5.3 m/s 16.3° 1020.7 hPa 5.0 m/s 8.6 mm
08:00 18.1° 1022.4 hPa 5.0 m/s 8.6 mm 18.2° 1022.5 hPa 5.0 m/s 17.3° 1020.8 hPa 5.0 m/s 8.6 mm
11:00 21.5° 1022.2 hPa 4.7 m/s 8.6 mm 21.5° 1022.3 hPa 4.7 m/s 21.0° 1021.3 hPa 4.9 m/s 8.6 mm
14:00 24.8° 1022.0 hPa 4.3 m/s 8.6 mm 24.8° 1022.1 hPa 4.3 m/s 24.4° 1021.0 hPa 4.4 m/s 8.6 mm
17:00 24.9° 1021.2 hPa 4.3 m/s 8.6 mm 24.9° 1021.2 hPa 4.2 m/s 25.2° 1020.2 hPa 5.1 m/s 8.6 mm
20:00 24.9° 1020.4 hPa 4.2 m/s 8.6 mm 25.0° 1020.4 hPa 4.1 m/s 24.2° 1019.9 hPa 4.8 m/s 8.6 mm
23:00 22.8° 1021.2 hPa 4.7 m/s 8.6 mm 23.0° 1021.2 hPa 4.7 m/s 20.7° 1020.8 hPa 4.7 m/s 8.6 mm
 05:19     22:05    Daglengte: 16:46 Dinsdag 25 Jun
02:00 20.9° 1022.0 hPa 5.1 m/s 8.6 mm 21.0° 1022.1 hPa 5.2 m/s 19.3° 1020.4 hPa 4.3 m/s 8.6 mm
05:00 20.5° 1021.7 hPa 4.6 m/s 8.6 mm 20.6° 1022.0 hPa 4.5 m/s 18.9° 1019.0 hPa 4.6 m/s 8.6 mm
08:00 20.3° 1021.6 hPa 4.0 m/s 8.6 mm 20.3° 1021.8 hPa 3.9 m/s 20.2° 1019.0 hPa 4.9 m/s 8.6 mm
11:00 23.7° 1021.3 hPa 4.4 m/s 8.6 mm 23.7° 1021.5 hPa 4.2 m/s 24.1° 1018.6 hPa 6.4 m/s 8.6 mm
14:00 27.1° 1020.9 hPa 4.8 m/s 8.6 mm 27.1° 1021.2 hPa 4.6 m/s 27.1° 1018.0 hPa 6.4 m/s 8.6 mm
17:00 27.3° 1020.3 hPa 3.8 m/s 8.6 mm 27.2° 1020.5 hPa 3.7 m/s 28.4° 1017.0 hPa 5.0 m/s 8.6 mm
20:00 27.2° 1019.7 hPa 2.8 m/s 8.6 mm 27.3° 1019.9 hPa 2.8 m/s 26.5° 1017.0 hPa 3.1 m/s 8.6 mm
23:00 24.8° 1020.0 hPa 3.5 m/s 8.6 mm 25.0° 1020.2 hPa 3.5 m/s 23.6° 1018.3 hPa 3.0 m/s 8.6 mm
 05:20     22:05    Daglengte: 16:45 Woensdag 26 Jun
02:00 22.5° 1020.3 hPa 4.2 m/s 8.6 mm 22.6° 1020.5 hPa 4.3 m/s 21.3° 1018.0 hPa 2.9 m/s 8.6 mm
05:00 22.2° 1020.0 hPa 4.0 m/s 8.6 mm 22.4° 1020.1 hPa 4.2 m/s 20.1° 1018.0 hPa 2.2 m/s 8.6 mm
08:00 22.0° 1019.7 hPa 3.8 m/s 8.6 mm 22.1° 1019.8 hPa 4.0 m/s 21.4° 1018.0 hPa 1.9 m/s 8.6 mm
11:00 25.4° 1019.3 hPa 4.4 m/s 8.6 mm 25.6° 1019.3 hPa 4.6 m/s 24.1° 1018.3 hPa 1.8 m/s 8.6 mm
14:00 28.6° 1018.8 hPa 5.1 m/s 8.6 mm 29.0° 1018.9 hPa 5.2 m/s 24.2° 1018.2 hPa 4.0 m/s 8.6 mm
17:00 29.3° 1017.8 hPa 3.9 m/s 8.6 mm 29.8° 1017.8 hPa 3.8 m/s 24.1° 1017.5 hPa 4.5 m/s 8.6 mm
20:00 29.8° 1016.8 hPa 2.6 m/s 8.6 mm 30.5° 1016.8 hPa 2.4 m/s 21.7° 1016.6 hPa 5.0 m/s 8.6 mm
 05:20     22:05    Daglengte: 16:45 Donderdag 27 Jun
02:00 23.0° 1016.1 hPa 3.2 m/s 14.2 mm 23.4° 1016.0 hPa 3.2 m/s 19.2° 1016.8 hPa 3.1 m/s 14.2 mm
08:00 23.4° 1015.0 hPa 2.5 m/s 14.8 mm 23.7° 1014.9 hPa 2.5 m/s 20.4° 1015.8 hPa 2.1 m/s 14.8 mm
14:00 30.5° 1014.7 hPa 1.2 m/s 15.4 mm 31.1° 1014.5 hPa 1.2 m/s 24.3° 1016.4 hPa 1.7 m/s 15.4 mm
20:00 27.4° 1012.9 hPa 2.6 m/s 15.7 mm 27.9° 1012.6 hPa 2.4 m/s 22.1° 1015.8 hPa 4.4 m/s 15.7 mm
 05:21     22:05    Daglengte: 16:44 Vrijdag 28 Jun
02:00 23.7° 1012.6 hPa 2.7 m/s 15.8 mm 24.2° 1012.3 hPa 2.7 m/s 18.1° 1015.8 hPa 3.2 m/s 15.8 mm
08:00 21.7° 1013.8 hPa 5.0 m/s 16.0 mm 22.0° 1013.6 hPa 5.2 m/s 18.4° 1015.4 hPa 3.2 m/s 16.0 mm
14:00 24.5° 1015.5 hPa 4.9 m/s 16.0 mm 24.7° 1015.4 hPa 5.0 m/s 22.4° 1016.5 hPa 3.9 m/s 16.0 mm
20:00 21.6° 1014.5 hPa 2.9 m/s 16.0 mm 21.7° 1014.3 hPa 2.8 m/s 20.0° 1017.2 hPa 4.1 m/s 16.0 mm
 05:21     22:04    Daglengte: 16:43 Zaterdag 29 Jun
02:00 18.3° 1014.2 hPa 2.8 m/s 16.0 mm 18.6° 1013.8 hPa 2.8 m/s 14.6° 1018.0 hPa 2.8 m/s 16.0 mm
08:00 15.7° 1018.5 hPa 2.4 m/s 16.0 mm 15.7° 1018.5 hPa 2.4 m/s 16.0 mm
14:00 20.4° 1018.7 hPa 2.9 m/s 16.0 mm 20.4° 1018.7 hPa 2.9 m/s 16.0 mm
20:00 21.5° 1015.5 hPa 4.0 m/s 0.6 mm
 05:22     22:04    Daglengte: 16:42 Zondag 30 Jun
02:00 16.0° 1015.4 hPa 3.0 m/s 0.5 mm
08:00 16.5° 1014.7 hPa 2.2 m/s 0.4 mm
14:00 22.6° 1014.6 hPa 0.0 m/s 0.5 mm
20:00 21.2° 1013.9 hPa 2.2 m/s 0.4 mm
 05:23     22:04    Daglengte: 16:41 Maandag 01 Jul
02:00 16.1° 1014.1 hPa 0.4 m/s 0.4 mm
08:00 16.8° 1013.3 hPa 0.6 m/s 0.5 mm
14:00 21.3° 1013.1 hPa 3.0 m/s 1.2 mm
20:00 20.4° 1012.3 hPa 2.7 m/s 0.6 mm
 05:24     22:04    Daglengte: 16:40 Dinsdag 02 Jul
02:00 16.0° 1012.4 hPa 1.0 m/s 0.8 mm
08:00 16.7° 1012.0 hPa 2.3 m/s 0.4 mm
14:00 20.2° 1012.3 hPa 3.7 m/s 0.7 mm
20:00 18.9° 1012.2 hPa 3.6 m/s 1.1 mm
 05:24     22:03    Daglengte: 16:39 Woensdag 03 Jul
02:00 14.8° 1012.8 hPa 1.8 m/s 0.4 mm
08:00 15.6° 1012.7 hPa 1.9 m/s 0.3 mm
14:00 19.3° 1013.1 hPa 3.1 m/s 0.4 mm
20:00 18.5° 1012.8 hPa 3.2 m/s 0.5 mm
 05:25     22:03    Daglengte: 16:38 Donderdag 04 Jul
02:00 14.5° 1012.8 hPa 1.0 m/s 0.3 mm
08:00 15.6° 1012.2 hPa 0.3 m/s 0.8 mm
14:00 19.3° 1012.2 hPa 2.4 m/s 2.4 mm
20:00 18.1° 1012.0 hPa 3.0 m/s 2.5 mm
FMI Hirlam - 7.5 km EWN WRFDA - 12 km DWD ICON - 7 km GFS - 25 km Basiskaart






























































Updatetijd (Europe/Amsterdam) Resolutie Lengte Stap
FMI Hirlam 19:00, 01:00, 07:00, 13:00 7.5 km 49h 1h
EWN WRFDA 16:00, 22:00, 04:00, 10:00 12 km 73h 1h
DWD ICON 17:45, 23:45, 05:45, 11:45 7 km 75h 1h
GFS 20:30, 02:30, 08:30, 14:30 25 km 237h 3h
30+ mm
25-30 mm
20-25 mm
15-20 mm
10-15 mm
6-10 mm
4-6 mm
2-4 mm
1-2 mm
0.5-1 mm
0.2-0.5 mm
0.1-0.2 mm
30+ mm
25-30 mm
20-25 mm
15-20 mm
10-15 mm
6-10 mm
4-6 mm
2-4 mm
1-2 mm
0.5-1 mm
0.2-0.5 mm
0.1-0.2 mm
Sneeuwval
Natte sneeuw
Hagel
Vorst
30+ mm
25-30 mm
20-25 mm
15-20 mm
10-15 mm
6-10 mm
4-6 mm
2-4 mm
1-2 mm
0.5-1 mm
0.2-0.5 mm
0.1-0.2 mm
Sneeuwval
Natte sneeuw
Hagel
Vorst
Onweer
50 mm
40 mm
30 mm
26 mm
22 mm
18 mm
14 mm
10 mm
9 mm
8 mm
7 mm
6 mm
5 mm
4.5 mm
4 mm
3.5 mm
3 mm
2.5 mm
2 mm
1.5 mm
1 mm
0.8 mm
0.6 mm
0.4 mm
0.2 mm
0.05 mm
35°
30°
25°
20°
15°
10°
-5°
-10°
-15°
-20°
-25°
-30°
-35°
33> m/s
29 m/s
25 m/s
21 m/s
17 m/s
14 m/s
11 m/s
8 m/s
5 m/s
3 m/s
0 m/s
2600 J/kg
2400 J/kg
2200 J/kg
2000 J/kg
1800 J/kg
1600 J/kg
1400 J/kg
1200 J/kg
1000 J/kg
800 J/kg
600 J/kg
400 J/kg
200 J/kg
70 dBZ
65 dBZ
60 dBZ
55 dBZ
50 dBZ
45 dBZ
40 dBZ
35 dBZ
30 dBZ
25 dBZ
20 dBZ
15 dBZ
10 dBZ
5 dBZ
-1 K
-2 K
-3 K
-4 K
-5 K
-6 K
-7 K
-8 K
-9 K
950 m²/s²
900 m²/s²
850 m²/s²
800 m²/s²
750 m²/s²
700 m²/s²
650 m²/s²
600 m²/s²
550 m²/s²
500 m²/s²
450 m²/s²
400 m²/s²
350 m²/s²
300 m²/s²
250 m²/s²
200 m²/s²
150 m²/s²
100 m²/s²
46 m/s
44 m/s
42 m/s
40 m/s
38 m/s
36 m/s
34 m/s
32 m/s
30 m/s
28 m/s
26 m/s
24 m/s
22 m/s
20 m/s
16 m/s
12 m/s
8 m/s
4 m/s
30 m/s
28 m/s
26 m/s
24 m/s
22 m/s
20 m/s
18 m/s
16 m/s
14 m/s
12 m/s
10 m/s
8 m/s
6 m/s
4 m/s
2 m/s
3.0
2.8
2.6
2.4
2.2
2.0
1.8
1.6
1.4
1.2
1.0
0.8
0.6
0.4
0.2
15
14
13
12
11
10
9
8
7
6
5
4
3
2
1
90%
80%
70%
60%
50%
40%
30%
20%
10%
42
40
38
36
34
32
30
28
26
24
22
20
18
16
14
12
90+ cm
80-90 cm
70-80 cm
60-70 cm
50-60 cm
40-50 cm
30-40 cm
20-30 cm
10-20 cm
1-10 cm
Sneeuwval
Natte sneeuw
Regen
>120 mm
115 mm
110 mm
105 mm
100 mm
95 mm
90 mm
85 mm
80 mm
75 mm
70 mm
65 mm
60 mm
55 mm
50 mm
45 mm
45 mm
40 mm
35 mm
30 mm
25 mm
20 mm
15 mm
10 mm
5 mm
0.1 mm
960 hPa
880 hPa
800 hPa
720 hPa
640 hPa
560 hPa
584 gpdm
568 gpdm
552 gpdm
536 gpdm
520 gpdm
504 gpdm
488 gpdm
Extreem zwaar Noodweer Kans op onweer
15% 15% 5% 50% 15%

Dag




Kaart






35°
30°
25°
20°
15°
10°
-5°
-10°
-15°
-20°
-25°
-30°
-35°
33> m/s
29 m/s
25 m/s
21 m/s
17 m/s
14 m/s
11 m/s
8 m/s
5 m/s
3 m/s
0 m/s
Extreem zwaar Noodweer Kans op onweer
15% 15% 5% 50% 15%
>120 mm
115 mm
110 mm
105 mm